FW3082 Weather Reports


Display with metric or nautical units.
time (UTC)temp
F
wind
direction
speed
MPH
gust
MPH
rain 1hr
in
rain 24hr
in
rain mn
in
humidity
%
barometer
mb
20190720015105 68 255 2.0 7.0 0.00 0.01 0.01 70 1012.6
20190720014105 69 192 2.0 5.0 0.00 0.01 0.01 69 1012.6
20190720013105 69 239 3.0 7.0 0.00 0.01 0.01 68 1012.6
20190720012104 70 248 1.0 7.0 0.00 0.01 0.01 68 1012.7
20190720011105 69 223 1.0 9.0 0.00 0.01 0.01 69 1012.8
20190720010105 70 227 6.0 8.0 0.00 0.01 0.01 67 1012.9
20190720005105 70 209 1.0 6.0 0.00 0.01 0.01 67 1012.8
20190720004105 71 178 4.0 7.0 0.00 0.01 0.01 66 1012.9
20190720003104 71 232 2.0 7.0 0.00 0.01 0.01 66 1013.0
20190720002105 71 169 1.0 10.0 0.00 0.01 0.01 66 1012.9
20190720001104 72 202 3.0 8.0 0.00 0.01 0.01 65 1013.0
20190720000104 72 210 1.0 9.0 0.00 0.01 0.01 65 1013.0
20190719235104 73 167 4.0 11.0 0.00 0.01 0.01 63 1013.0
20190719234104 73 128 4.0 11.0 0.00 0.01 0.01 62 1013.0
20190719233104 73 195 5.0 9.0 0.00 0.01 0.01 63 1013.0
20190719232104 73 217 1.0 8.0 0.00 0.01 0.01 64 1013.0
20190719231105 73 248 4.0 8.0 0.00 0.01 0.01 64 1013.1
20190719230105 73 197 2.0 9.0 0.00 0.01 0.01 63 1013.1
20190719225105 73 196 7.0 9.0 0.00 0.01 0.01 63 1013.3
20190719224104 73 212 1.0 10.0 0.00 0.01 0.01 64 1013.6
20190719223104 73 247 3.0 8.0 0.00 0.01 0.01 63 1013.6
20190719222104 74 210 1.0 9.0 0.00 0.01 0.01 62 1013.6
20190719221104 74 195 5.0 9.0 0.00 0.01 0.01 62 1013.8
20190719220104 74 73 2.0 9.0 0.00 0.01 0.01 62 1013.7
20190719215104 73 180 2.0 10.0 0.00 0.01 0.01 63 1013.8
20190719214104 74 162 2.0 8.0 0.00 0.01 0.01 62 1013.9
20190719213104 72 168 6.0 12.0 0.00 0.01 0.01 64 1014.0
20190719212104 73 233 2.0 8.0 0.00 0.01 0.01 64 1014.1
20190719211104 72 175 3.0 8.0 0.00 0.01 0.01 66 1014.1
20190719210104 74 209 5.0 9.0 0.00 0.01 0.01 63 1014.1
20190719205104 73 96 1.0 9.0 0.00 0.01 0.01 64 1014.1
20190719204103 73 107 4.0 10.0 0.00 0.01 0.01 63 1014.2
20190719203104 73 178 3.0 9.0 0.00 0.01 0.01 64 1014.3
20190719202103 73 169 4.0 8.0 0.00 0.01 0.01 66 1014.2
20190719201103 72 179 2.0 6.0 0.00 0.01 0.01 68 1014.3
20190719200104 72 242 1.0 7.0 0.00 0.01 0.01 69 1014.6
20190719195103 71 198 3.0 5.0 0.00 0.01 0.01 69 1014.6
20190719194103 71 207 2.0 6.0 0.00 0.01 0.01 70 1014.7
20190719193104 70 217 1.0 7.0 0.00 0.01 0.01 71 1014.7
20190719192103 70 58 1.0 6.0 0.00 0.01 0.01 70 1014.7
20190719191103 70 117 1.0 4.0 0.00 0.01 0.01 72 1014.8
20190719190103 69 216 1.0 6.0 0.00 0.01 0.01 73 1014.8
20190719185103 68 144 2.0 5.0 0.00 0.01 0.01 76 1014.9
20190719184103 67 145 0.0 6.0 0.00 0.01 0.01 78 1014.9
20190719183103 67 173 2.0 5.0 0.00 0.01 0.01 77 1014.7
20190719182103 66 314 0.0 3.0 0.00 0.01 0.01 77 1014.8
20190719181103 67 176 2.0 6.0 0.00 0.01 0.01 77 1014.8
20190719180103 66 259 1.0 2.0 0.00 0.01 0.01 79 1014.8
20190719175103 66 270 1.0 4.0 0.00 0.01 0.01 79 1014.7
20190719174103 66 298 2.0 4.0 0.00 0.01 0.01 80 1014.6
20190719173102 66 298 3.0 4.0 0.00 0.01 0.01 80 1014.6
20190719172102 66 350 0.0 3.0 0.00 0.01 0.01 81 1014.6
20190719171102 65 337 2.0 3.0 0.00 0.01 0.01 81 1014.5
20190719170132 65 269 1.0 2.0 0.00 0.01 0.01 82 1014.6
20190719165103 65 274 0.0 3.0 0.00 0.01 0.01 82 1014.4
20190719164102 64 313 1.0 2.0 0.00 0.01 0.01 84 1014.4
20190719163103 64 355 1.0 3.0 0.00 0.01 0.01 85 1014.5
20190719162103 64 337 2.0 4.0 0.00 0.01 0.01 85 1014.5
20190719161102 63 355 3.0 3.0 0.00 0.01 0.01 88 1014.5
20190719160102 63 304 2.0 4.0 0.00 0.01 0.01 88 1014.5
20190719155102 63 5 1.0 3.0 0.00 0.01 0.01 89 1014.5
20190719154102 62 9 1.0 4.0 0.00 0.01 0.01 90 1014.4
20190719153103 62 318 2.0 5.0 0.00 0.01 0.01 90 1014.3
20190719152103 61 296 2.0 5.0 0.00 0.01 0.01 92 1014.3
20190719151103 61 309 3.0 4.0 0.00 0.01 0.01 92 1014.3
20190719150102 61 326 2.0 3.0 0.00 0.01 0.01 93 1014.2
20190719145103 60 342 1.0 3.0 0.00 0.01 0.01 93 1014.3
20190719144102 60 280 1.0 2.0 0.00 0.01 0.01 93 1014.2
20190719143102 60 273 0.0 1.0 0.00 0.01 0.01 93 1014.2
20190719142102 60 273 1.0 2.0 0.00 0.01 0.01 93 1014.1
20190719141102 60 273 1.0 3.0 0.01 0.01 0.01 93 1014.0
20190719140132 60 234 1.0 2.0 0.01 0.01 0.01 93 1013.9
20190719135102 60 233 2.0 2.0 0.01 0.01 0.01 93 1014.0
20190719134103 60 216 0.0 2.0 0.01 0.01 0.01 93 1014.0
20190719133102 60 210 0.0 2.0 0.01 0.01 0.01 92 1013.9
20190719132102 60 204 0.0 2.0 0.01 0.01 0.01 92 1013.8
20190719131102 60 186 0.0 2.0 0.00 0.00 0.00 92 1013.7
20190719130132 60 183 0.0 1.0 0.00 0.00 0.00 92 1013.8
20190719125102 60 183 1.0 2.0 0.00 0.00 0.00 92 1013.6
20190719124102 60 180 2.0 2.0 0.00 0.00 0.00 92 1013.5
20190719123103 60 178 0.0 1.0 0.00 0.00 0.00 92 1013.3
20190719122103 60 169 1.0 2.0 0.00 0.00 0.00 92 1013.3
20190719121103 60 203 0.0 3.0 0.00 0.00 0.00 92 1013.2
20190719120132 60 173 0.0 2.0 0.00 0.00 0.00 92 1013.1
20190719115101 61 173 0.0 2.0 0.00 0.00 0.00 92 1013.0
20190719114101 61 227 0.0 1.0 0.00 0.00 0.00 92 1013.1
20190719113101 60 238 1.0 2.0 0.00 0.00 0.00 92 1013.1
20190719112101 60 202 1.0 2.0 0.00 0.00 0.00 92 1013.2
20190719111101 60 197 1.0 1.0 0.00 0.00 0.00 92 1013.0
20190719110101 60 197 0.0 1.0 0.00 0.00 0.00 92 1013.1
20190719105101 61 197 0.0 1.0 0.00 0.00 0.00 92 1013.1
20190719104102 60 197 0.0 1.0 0.00 0.00 0.00 92 1013.2
20190719103101 60 275 0.0 1.0 0.00 0.00 0.00 92 1013.3
20190719102101 60 275 0.0 1.0 0.00 0.00 0.00 92 1013.2
20190719101103 60 275 0.0 0.0 0.00 0.00 0.00 92 1013.2
20190719100101 60 275 0.0 2.0 0.00 0.00 0.00 92 1013.2
20190719095101 60 275 1.0 2.0 0.00 0.00 0.00 92 1013.3
20190719094101 60 252 0.0 2.0 0.00 0.00 0.00 92 1013.3
20190719093100 60 252 1.0 2.0 0.00 0.00 0.00 92 1013.3
20190719092102 60 214 1.0 2.0 0.00 0.00 0.00 91 1013.3
20190719091102 60 211 0.0 2.0 0.00 0.00 0.00 91 1013.1
20190719090101 60 254 0.0 2.0 0.00 0.00 0.00 91 1013.2
20190719085101 60 255 1.0 4.0 0.00 0.00 0.00 91 1013.1
20190719084102 60 250 2.0 3.0 0.00 0.00 0.00 90 1013.3
20190719083101 61 252 2.0 3.0 0.00 0.00 0.00 90 1013.3
20190719082100 61 211 1.0 2.0 0.00 0.00 0.00 90 1013.4
20190719081101 61 205 0.0 1.0 0.00 0.00 0.00 90 1013.3
20190719080101 60 298 0.0 2.0 0.00 0.00 0.00 90 1013.4
20190719075100 60 309 0.0 1.0 0.00 0.00 0.00 90 1013.4
20190719074100 60 321 0.0 1.0 0.00 0.00 0.00 89 1013.4
20190719073101 60 321 0.0 1.0 0.00 0.00 0.00 90 1013.3
20190719072101 59 321 0.0 1.0 0.00 0.00 0.00 90 1013.3
20190719071101 59 321 0.0 2.0 0.00 0.00 0.00 90 1013.3
20190719070130 59 321 1.0 1.0 0.00 0.00 0.00 90 1013.3
20190719065100 58 321 0.0 2.0 0.00 0.00 0.00 91 1013.3
20190719064100 58 321 1.0 2.0 0.00 0.00 0.00 91 1013.2
20190719063100 57 321 0.0 1.0 0.00 0.00 0.00 91 1013.1
20190719062101 57 321 1.0 2.0 0.00 0.00 0.00 91 1013.2
20190719061101 57 321 0.0 0.0 0.00 0.00 0.00 90 1013.2
20190719060130 57 321 0.0 2.0 0.00 0.00 0.00 90 1013.3
20190719055100 58 319 0.0 1.0 0.00 0.00 0.00 90 1013.2
20190719054100 58 319 1.0 1.0 0.00 0.00 0.00 89 1013.3
20190719053100 58 319 1.0 1.0 0.00 0.00 0.00 89 1013.3
20190719052100 59 319 0.0 2.0 0.00 0.00 0.00 89 1013.2
20190719051100 59 319 1.0 2.0 0.00 0.00 0.00 89 1013.2
20190719050130 60 319 1.0 2.0 0.00 0.00 0.00 88 1013.3
20190719045100 60 315 0.0 2.0 0.00 0.00 0.00 88 1013.2
20190719044100 61 258 1.0 2.0 0.00 0.00 0.00 87 1013.1
20190719043100 62 202 0.0 1.0 0.00 0.00 0.00 85 1012.8
20190719042100 62 203 0.0 2.0 0.00 0.00 0.00 85 1012.7
20190719041100 63 196 0.0 1.0 0.00 0.00 0.00 84 1012.7
20190719040130 63 197 0.0 3.0 0.00 0.00 0.00 84 1012.7
20190719035059 63 182 0.0 2.0 0.00 0.00 0.00 83 1012.5
20190719034059 64 190 0.0 2.0 0.00 0.00 0.00 82 1012.6
20190719033100 64 252 1.0 2.0 0.00 0.00 0.00 82 1012.4
20190719032059 65 182 0.0 3.0 0.00 0.00 0.00 80 1012.4
20190719031059 65 220 0.0 2.0 0.00 0.00 0.00 79 1012.2
20190719030130 66 200 1.0 4.0 0.00 0.00 0.00 78 1012.2
20190719025059 66 181 1.0 3.0 0.00 0.00 0.00 77 1012.3
20190719024059 67 184 0.0 5.0 0.00 0.00 0.00 76 1012.4
20190719023059 67 178 2.0 5.0 0.00 0.00 0.00 76 1012.4
20190719022100 67 235 1.0 6.0 0.00 0.00 0.00 76 1012.5
20190719021059 68 149 1.0 5.0 0.00 0.00 0.00 75 1012.5
20190719020129 68 191 1.0 6.0 0.00 0.00 0.00 74 1012.3